Time,TemperatureF,DewpointF,PressureIn,WindDirection,WindDirectionDegrees,WindSpeedMPH,WindSpeedGustMPH,Humidity,HourlyPrecipIn,Conditions,Clouds,dailyrainin,SolarRadiationWatts/m^2,SoftwareType,DateUTC
2013-02-23 00:00:00,75.4,71.0,30.05,SE,133,9.0,-999.0,87,-99.99,,,0.00,0,weatherlink.com 1.10,2013-02-23 05:00:00,
2013-02-23 00:15:00,75.4,71.0,30.06,SE,128,6.0,-999.0,87,-99.99,,,0.00,0,weatherlink.com 1.10,2013-02-23 05:15:00,
2013-02-23 00:30:00,75.3,71.0,30.05,SE,136,13.0,-999.0,87,-99.99,,,0.00,0,weatherlink.com 1.10,2013-02-23 05:30:00,
2013-02-23 00:45:00,75.2,71.0,30.05,SE,137,12.0,-999.0,87,-99.99,,,0.00,0,weatherlink.com 1.10,2013-02-23 05:45:00,
2013-02-23 01:00:00,75.3,71.0,30.05,SE,133,12.0,-999.0,87,-99.99,,,0.00,0,weatherlink.com 1.10,2013-02-23 06:00:00,
2013-02-23 01:15:00,75.2,71.0,30.05,SE,125,9.0,-999.0,86,-99.99,,,0.00,0,weatherlink.com 1.10,2013-02-23 06:15:00,
2013-02-23 01:30:00,75.3,71.0,30.04,SE,130,9.0,-999.0,86,-99.99,,,0.00,0,weatherlink.com 1.10,2013-02-23 06:30:00,
2013-02-23 01:45:00,75.1,71.0,30.03,SE,132,8.0,-999.0,87,-99.99,,,0.00,0,weatherlink.com 1.10,2013-02-23 06:45:00,
2013-02-23 02:00:00,75.0,71.0,30.02,SE,135,12.0,-999.0,87,-99.99,,,0.00,0,weatherlink.com 1.10,2013-02-23 07:00:00,
2013-02-23 02:15:00,75.0,71.0,30.02,SE,124,11.0,-999.0,87,-99.99,,,0.00,0,weatherlink.com 1.10,2013-02-23 07:15:00,
2013-02-23 02:30:00,74.8,70.0,30.01,SE,135,6.0,-999.0,86,-99.99,,,0.00,0,weatherlink.com 1.10,2013-02-23 07:30:00,
2013-02-23 02:45:00,74.9,71.0,30.01,SE,145,8.0,-999.0,86,-99.99,,,0.00,0,weatherlink.com 1.10,2013-02-23 07:45:00,
2013-02-23 03:00:00,74.9,71.0,30.01,SE,132,7.0,-999.0,86,-99.99,,,0.00,0,weatherlink.com 1.10,2013-02-23 08:00:00,
2013-02-23 03:15:00,75.0,71.0,30.00,SE,132,14.0,-999.0,87,-99.99,,,0.00,0,weatherlink.com 1.10,2013-02-23 08:15:00,
2013-02-23 03:30:00,74.9,71.0,30.00,SE,131,5.0,-999.0,87,-99.99,,,0.00,0,weatherlink.com 1.10,2013-02-23 08:30:00,
2013-02-23 03:45:00,74.9,71.0,30.00,SE,135,6.0,-999.0,87,-99.99,,,0.00,0,weatherlink.com 1.10,2013-02-23 08:45:00,
2013-02-23 04:00:00,74.8,71.0,29.99,SSE,148,8.0,-999.0,87,-99.99,,,0.00,0,weatherlink.com 1.10,2013-02-23 09:00:00,
2013-02-23 04:15:00,74.9,71.0,29.99,SE,131,6.0,-999.0,87,-99.99,,,0.00,0,weatherlink.com 1.10,2013-02-23 09:15:00,
2013-02-23 04:30:00,74.9,71.0,29.99,SE,142,7.0,-999.0,87,-99.99,,,0.00,0,weatherlink.com 1.10,2013-02-23 09:30:00,
2013-02-23 04:45:00,74.9,71.0,30.00,SE,133,9.0,-999.0,86,-99.99,,,0.00,0,weatherlink.com 1.10,2013-02-23 09:45:00,
2013-02-23 05:00:00,74.9,71.0,29.99,SE,135,7.0,-999.0,86,-99.99,,,0.00,0,weatherlink.com 1.10,2013-02-23 10:00:00,
2013-02-23 05:15:00,74.9,71.0,29.99,SE,146,4.0,-999.0,86,-99.99,,,0.00,0,weatherlink.com 1.10,2013-02-23 10:15:00,
2013-02-23 05:30:00,74.9,71.0,30.00,SE,136,8.0,-999.0,87,-99.99,,,0.00,0,weatherlink.com 1.10,2013-02-23 10:30:00,
2013-02-23 05:45:00,74.9,71.0,29.99,SE,132,4.0,-999.0,87,-99.99,,,0.00,0,weatherlink.com 1.10,2013-02-23 10:45:00,
2013-02-23 06:00:00,74.9,71.0,30.00,SSE,153,6.0,-999.0,87,-99.99,,,0.00,0,weatherlink.com 1.10,2013-02-23 11:00:00,
2013-02-23 06:15:00,74.9,71.0,30.01,SE,146,6.0,-999.0,88,-99.99,,,0.00,0,weatherlink.com 1.10,2013-02-23 11:15:00,
2013-02-23 06:30:00,74.9,71.0,30.00,SE,144,6.0,-999.0,88,-99.99,,,0.00,0,weatherlink.com 1.10,2013-02-23 11:30:00,
2013-02-23 06:45:00,74.8,71.0,30.00,SSE,148,5.0,-999.0,88,-99.99,,,0.00,0,weatherlink.com 1.10,2013-02-23 11:45:00,
2013-02-23 07:01:00,74.8,71.0,30.00,SSE,153,11.0,-999.0,88,-99.99,,,0.00,11,weatherlink.com 1.10,2013-02-23 12:01:00,
2013-02-23 07:16:00,75.0,71.0,30.00,SSE,158,7.0,-999.0,88,-99.99,,,0.00,26,weatherlink.com 1.10,2013-02-23 12:16:00,
2013-02-23 07:31:00,75.2,72.0,30.01,SSE,153,9.0,-999.0,88,-99.99,,,0.00,33,weatherlink.com 1.10,2013-02-23 12:31:00,
2013-02-23 07:46:00,75.8,72.0,30.01,SSE,155,5.0,-999.0,87,-99.99,,,0.00,42,weatherlink.com 1.10,2013-02-23 12:46:00,
2013-02-23 08:01:00,76.3,72.0,30.02,SE,138,6.0,-999.0,86,-99.99,,,0.00,47,weatherlink.com 1.10,2013-02-23 13:01:00,
2013-02-23 08:16:00,76.7,72.0,30.02,SE,133,4.0,-999.0,85,-99.99,,,0.00,54,weatherlink.com 1.10,2013-02-23 13:16:00,
2013-02-23 08:31:00,77.1,72.0,30.02,SSE,148,8.0,-999.0,85,-99.99,,,0.00,58,weatherlink.com 1.10,2013-02-23 13:31:00,
2013-02-23 08:46:00,77.4,72.0,30.02,SSE,148,5.0,-999.0,84,-99.99,,,0.00,65,weatherlink.com 1.10,2013-02-23 13:46:00,
2013-02-23 09:01:00,77.8,72.0,30.02,SSE,147,5.0,-999.0,83,-99.99,,,0.00,74,weatherlink.com 1.10,2013-02-23 14:01:00,
2013-02-23 09:16:00,77.8,72.0,30.03,SSE,156,4.0,-999.0,83,-99.99,,,0.00,134,weatherlink.com 1.10,2013-02-23 14:16:00,
2013-02-23 09:31:00,78.4,73.0,30.03,SE,146,7.0,-999.0,83,-99.99,,,0.00,359,weatherlink.com 1.10,2013-02-23 14:31:00,
2013-02-23 09:46:00,78.7,73.0,30.03,SSE,156,15.0,-999.0,82,-99.99,,,0.00,513,weatherlink.com 1.10,2013-02-23 14:46:00,
2013-02-23 10:01:00,79.0,73.0,30.04,SE,145,4.0,-999.0,82,-99.99,,,0.00,557,weatherlink.com 1.10,2013-02-23 15:01:00,
2013-02-23 10:16:00,79.0,73.0,30.04,SE,132,7.0,-999.0,82,-99.99,,,0.00,633,weatherlink.com 1.10,2013-02-23 15:16:00,
2013-02-23 10:31:00,79.5,74.0,30.04,SE,136,4.0,-999.0,82,-99.99,,,0.00,686,weatherlink.com 1.10,2013-02-23 15:31:00,
2013-02-23 10:46:00,79.3,73.0,30.04,SE,128,4.0,-999.0,81,-99.99,,,0.00,374,weatherlink.com 1.10,2013-02-23 15:46:00,
2013-02-23 11:01:00,79.2,74.0,30.04,SE,136,5.0,-999.0,83,-99.99,,,0.00,330,weatherlink.com 1.10,2013-02-23 16:01:00,
2013-02-23 11:16:00,79.0,74.0,30.03,SE,144,4.0,-999.0,83,-99.99,,,0.00,399,weatherlink.com 1.10,2013-02-23 16:16:00,
2013-02-23 11:31:00,79.3,74.0,30.03,SE,146,5.0,-999.0,83,-99.99,,,0.00,919,weatherlink.com 1.10,2013-02-23 16:31:00,
2013-02-23 11:46:00,79.9,74.0,30.02,SE,131,6.0,-999.0,81,-99.99,,,0.00,654,weatherlink.com 1.10,2013-02-23 16:46:00,
2013-02-23 12:01:00,80.4,74.0,30.02,SE,139,4.0,-999.0,81,-99.99,,,0.00,805,weatherlink.com 1.10,2013-02-23 17:01:00,
2013-02-23 12:16:00,80.2,74.0,30.02,SE,145,6.0,-999.0,81,-99.99,,,0.00,536,weatherlink.com 1.10,2013-02-23 17:16:00,
2013-02-23 12:31:00,79.6,73.0,30.01,SE,145,5.0,-999.0,81,-99.99,,,0.00,367,weatherlink.com 1.10,2013-02-23 17:31:00,
2013-02-23 12:46:00,80.2,74.0,30.00,SSE,153,7.0,-999.0,81,-99.99,,,0.00,805,weatherlink.com 1.10,2013-02-23 17:46:00,
2013-02-23 13:01:00,80.8,75.0,30.00,SSE,155,4.0,-999.0,82,-99.99,,,0.00,793,weatherlink.com 1.10,2013-02-23 18:01:00,
2013-02-23 13:16:00,80.8,75.0,29.99,SSE,155,9.0,-999.0,81,-99.99,,,0.00,777,weatherlink.com 1.10,2013-02-23 18:16:00,
2013-02-23 13:31:00,80.5,75.0,29.98,SSE,154,7.0,-999.0,82,-99.99,,,0.00,744,weatherlink.com 1.10,2013-02-23 18:31:00,
2013-02-23 13:46:00,80.5,74.0,29.98,SSE,167,5.0,-999.0,80,-99.99,,,0.00,700,weatherlink.com 1.10,2013-02-23 18:46:00,
2013-02-23 14:02:00,80.0,74.0,29.98,SSE,152,5.0,-999.0,82,-99.99,,,0.00,691,weatherlink.com 1.10,2013-02-23 19:02:00,
2013-02-23 14:17:00,80.6,75.0,29.97,SSE,153,0.0,-999.0,83,-99.99,,,0.00,633,weatherlink.com 1.10,2013-02-23 19:17:00,
2013-02-23 14:32:00,81.0,75.0,29.97,SSE,152,1.0,-999.0,82,-99.99,,,0.00,387,weatherlink.com 1.10,2013-02-23 19:32:00,
2013-02-23 14:47:00,80.4,75.0,29.97,SSE,154,0.0,-999.0,82,-99.99,,,0.00,345,weatherlink.com 1.10,2013-02-23 19:47:00,
2013-02-23 15:02:00,80.1,75.0,29.96,SSE,154,0.0,-999.0,83,-99.99,,,0.00,316,weatherlink.com 1.10,2013-02-23 20:02:00,
2013-02-23 15:17:00,80.0,75.0,29.95,SSE,155,4.0,-999.0,84,-99.99,,,0.00,364,weatherlink.com 1.10,2013-02-23 20:17:00,
2013-02-23 15:32:00,80.4,75.0,29.95,SSE,155,5.0,-999.0,83,-99.99,,,0.00,160,weatherlink.com 1.10,2013-02-23 20:32:00,
2013-02-23 15:47:00,80.0,75.0,29.95,SSE,163,0.0,-999.0,84,-99.99,,,0.00,116,weatherlink.com 1.10,2013-02-23 20:47:00,
2013-02-23 16:02:00,79.5,74.0,29.95,SSE,156,4.0,-999.0,84,-99.99,,,0.00,109,weatherlink.com 1.10,2013-02-23 21:02:00,
2013-02-23 16:17:00,79.1,74.0,29.94,SSE,155,2.0,-999.0,85,-99.99,,,0.00,102,weatherlink.com 1.10,2013-02-23 21:17:00,
2013-02-23 16:32:00,78.9,74.0,29.94,SSE,157,2.0,-999.0,86,-99.99,,,0.00,98,weatherlink.com 1.10,2013-02-23 21:32:00,
2013-02-23 16:47:00,78.9,74.0,29.95,SSE,157,1.0,-999.0,86,-99.99,,,0.00,128,weatherlink.com 1.10,2013-02-23 21:47:00,
2013-02-23 17:02:00,78.4,74.0,29.95,SSE,157,2.0,-999.0,87,-99.99,,,0.00,72,weatherlink.com 1.10,2013-02-23 22:02:00,
2013-02-23 17:17:00,78.2,74.0,29.95,SSE,157,0.0,-999.0,88,-99.99,,,0.00,81,weatherlink.com 1.10,2013-02-23 22:17:00,
2013-02-23 17:32:00,78.0,74.0,29.95,SSE,157,0.0,-999.0,88,-99.99,,,0.00,67,weatherlink.com 1.10,2013-02-23 22:32:00,
2013-02-23 17:47:00,77.6,74.0,29.96,SSE,157,4.0,-999.0,88,-99.99,,,0.00,40,weatherlink.com 1.10,2013-02-23 22:47:00,
2013-02-23 18:02:00,77.2,74.0,29.95,SSE,157,0.0,-999.0,88,-99.99,,,0.00,19,weatherlink.com 1.10,2013-02-23 23:02:00,
2013-02-23 18:17:00,77.0,74.0,29.95,SSE,157,0.0,-999.0,89,-99.99,,,0.00,7,weatherlink.com 1.10,2013-02-23 23:17:00,
2013-02-23 18:32:00,76.8,74.0,29.95,SSE,157,0.0,-999.0,90,-99.99,,,0.00,0,weatherlink.com 1.10,2013-02-23 23:32:00,
2013-02-23 18:47:00,76.5,74.0,29.96,SSE,157,0.0,-999.0,90,-99.99,,,0.00,0,weatherlink.com 1.10,2013-02-23 23:47:00,
2013-02-23 19:02:00,76.4,74.0,29.96,SSE,157,1.0,-999.0,91,-99.99,,,0.00,0,weatherlink.com 1.10,2013-02-24 00:02:00,
2013-02-23 19:17:00,76.1,73.0,29.96,SSE,157,5.0,-999.0,91,-99.99,,,0.00,0,weatherlink.com 1.10,2013-02-24 00:17:00,
2013-02-23 19:32:00,76.0,73.0,29.96,SSE,157,2.0,-999.0,91,-99.99,,,0.00,0,weatherlink.com 1.10,2013-02-24 00:32:00,
2013-02-23 19:47:00,75.9,73.0,29.96,SSE,157,6.0,-999.0,91,-99.99,,,0.00,0,weatherlink.com 1.10,2013-02-24 00:47:00,
2013-02-23 20:02:00,75.8,73.0,29.97,SSE,157,0.0,-999.0,91,-99.99,,,0.00,0,weatherlink.com 1.10,2013-02-24 01:02:00,
2013-02-23 20:17:00,75.9,73.0,29.98,SSE,157,4.0,-999.0,91,-99.99,,,0.00,0,weatherlink.com 1.10,2013-02-24 01:17:00,
2013-02-23 20:32:00,75.8,73.0,29.98,SSE,157,1.0,-999.0,92,-99.99,,,0.00,0,weatherlink.com 1.10,2013-02-24 01:32:00,
2013-02-23 20:47:00,75.8,73.0,29.98,SSE,157,0.0,-999.0,92,-99.99,,,0.00,0,weatherlink.com 1.10,2013-02-24 01:47:00,
2013-02-23 21:02:00,75.9,74.0,29.98,SSE,157,0.0,-999.0,92,-99.99,,,0.00,0,weatherlink.com 1.10,2013-02-24 02:02:00,
2013-02-23 21:17:00,75.9,74.0,29.98,SSE,157,1.0,-999.0,92,-99.99,,,0.00,0,weatherlink.com 1.10,2013-02-24 02:17:00,
2013-02-23 21:32:00,75.8,74.0,29.99,SSE,157,1.0,-999.0,93,-99.99,,,0.00,0,weatherlink.com 1.10,2013-02-24 02:32:00,
2013-02-23 21:47:00,75.8,74.0,29.99,SSE,157,0.0,-999.0,93,-99.99,,,0.00,0,weatherlink.com 1.10,2013-02-24 02:47:00,
2013-02-23 22:02:00,75.8,74.0,29.99,SSE,157,5.0,-999.0,93,-99.99,,,0.00,0,weatherlink.com 1.10,2013-02-24 03:02:00,
2013-02-23 22:17:00,75.7,74.0,29.99,SSE,157,6.0,-999.0,93,-99.99,,,0.00,0,weatherlink.com 1.10,2013-02-24 03:17:00,
2013-02-23 22:32:00,75.7,74.0,29.98,SSE,157,0.0,-999.0,93,-99.99,,,0.00,0,weatherlink.com 1.10,2013-02-24 03:32:00,
2013-02-23 22:47:00,75.7,74.0,29.99,SSE,157,6.0,-999.0,93,-99.99,,,0.00,0,weatherlink.com 1.10,2013-02-24 03:47:00,
2013-02-23 23:02:00,75.7,74.0,29.98,SSE,156,5.0,-999.0,93,-99.99,,,0.00,0,weatherlink.com 1.10,2013-02-24 04:02:00,
2013-02-23 23:17:00,75.7,74.0,29.99,SSE,156,2.0,-999.0,93,-99.99,,,0.00,0,weatherlink.com 1.10,2013-02-24 04:17:00,
2013-02-23 23:32:00,75.8,74.0,29.99,SSE,155,2.0,-999.0,93,-99.99,,,0.00,0,weatherlink.com 1.10,2013-02-24 04:32:00,
2013-02-23 23:47:00,75.7,74.0,29.99,SSE,155,2.0,-999.0,93,-99.99,,,0.00,0,weatherlink.com 1.10,2013-02-24 04:47:00,